Weather in Slavuta

Ukraine / Khmelnitsky District     50°18′09″N   26°52′06″E
temp.,
°C
wind,
m/s
gust,
m/s
humid.,
%
clouds,
%
prec.,
mm/h
press.,
hPa
HPBL,
m
16 may, sun
sun1600:00+10s11915 0.0 101110
03:00+9sse22935 0.0 101118
06:00+9se349498 0.0 101155
09:00+14se3677100 0.0 1011376
12:00+20sse5757100 0.0 10101346
15:00+21sse685773 1.3 10091560
18:00+15ssw61182100 1.2 1008478
21:00+13ne1188100 3.4 100819
17 may, mon
mon1700:00+12sse399438 1.3 1008180
03:00+12s249497 1.7 100873
06:00+11w129690 0.4 100830
09:00+15nw3483100 0.4 1008457
12:00+19n3264100 0.0 1006943
15:00+19nnw3368100 1.1 10051013
18:00+19n2375100 0.8 1003520
21:00+14nne1183100 0.6 100411
18 may, tue
tue1800:00+13ene11885 0.0 100210
03:00+11wsw2292100 0.0 100223
06:00+11w2594100 0.4 1001149
09:00+11w61097100 5.4 1002712
12:00+10w71296100 8.7 1004725
15:00+11w7129099 11.3 10051166
18:00+10w71389100 0.3 1006967
21:00+10wsw4119344 0.7 1006475
19 may, wed
wed1900:00+9wsw613945 0.1 1007474
03:00+9wsw61493100 0.2 1007621
06:00+9w7139398 0.1 1008821
09:00+10w71485100 0.1 1009976
12:00+14w8126099 0.1 10101746
15:00+15wnw81157100 0.3 10111906
18:00+14wnw6966100 0.1 10121381
21:00+10w37858 0.1 1014131
20 may, thu
thu2000:00+8w359314 0.0 101696
03:00+7w239496 0.0 101754
06:00+7wnw2593100 0.0 1017125
09:00+11wnw3473100 0.0 1018448
12:00+14w3359100 0.0 10181252
15:00+16wsw345269 0.4 10181707
18:00+14w3664100 0.1 1018309
21:00+10w12823 0.1 101810